#timestamp,LO_Frequency,Hit 
1504522815.8,286046997.3,N
1504522835.7,286046997.3,N
1504522855.5,286046997.0,N
1504522875.3,286046997.3,N
1504522895.2,286046997.6,N
1504522915.9,286046997.8,N
1504522935.7,286046995.8,P
1504522955.6,286046997.4,P
1504522975.4,286046996.7,P
1504522995.2,286046997.4,P
1504523015.1,286047002.2,P
1504523016.0,286047002.2,N
1504523035.8,286047000.3,N
1504523055.6,286047000.3,N
1504523075.5,286047000.0,N
1504523095.3,286046999.3,N
1504523115.1,286046998.5,N
1504523135.9,286046998.8,N
1504523155.7,286046999.4,N
1504523175.5,286046998.0,N
1504523195.4,286046995.1,P
1504523215.2,286046996.1,N
1504523235.0,286046994.2,P
1504523235.9,286046994.2,N
1504523255.8,286046994.1,P
1504523275.6,286046998.9,N
1504523295.4,286046996.5,N
1504523315.3,286046999.3,N
1504523335.1,286046997.8,N
1504523355.8,286046997.6,N
1504523375.7,286046996.8,N
1504523395.5,286046997.1,N
1504523415.3,286046995.7,N
1504523435.2,286046994.0,P
1504523455.0,286046997.8,N
1504523455.9,286046997.8,N
1504523475.7,286046996.5,N
1504523495.6,286046999.1,N
1504523515.4,286046995.3,N
1504523535.2,286046993.7,P
1504523555.1,286046997.5,N
1504523556.0,286046997.5,N
1504523575.8,286046995.4,N
1504523595.7,286046995.1,P
1504523615.5,286047000.9,N
1504523635.3,286046999.5,N
1504523655.1,286046997.8,N
1504523675.9,286046995.3,N
1504523695.7,286046995.5,N
1504523715.5,286046996.1,N
1504523735.4,286046993.8,P
1504523755.2,286046999.2,N
1504523775.0,286046998.2,N
1504523775.9,286046998.2,N
1504523795.8,286046997.0,N
1504523815.6,286046996.6,N
1504523835.4,286046996.5,N
1504523855.3,286046995.3,P
1504523875.1,286046999.9,N
1504523895.8,286047000.0,N
1504523915.7,286047001.0,N
1504523935.5,286047002.1,N
1504523955.3,286047000.9,N
1504523975.2,286047000.7,N
1504523995.9,286046998.7,N
1504524015.7,286046999.7,N
1504524035.6,286047000.3,N
1504524055.4,286047000.8,N
1504524075.2,286046998.8,N
1504524095.1,286046999.1,N
1504524096.0,286046999.1,N
1504524115.8,286046997.8,N
1504524135.6,286046997.8,N
1504524155.4,286046997.6,N
1504524175.3,286046995.2,N
1504524195.1,286046996.2,N
1504524215.8,286046995.5,N
1504524235.7,286046996.4,N
1504524255.5,286046996.3,N
1504524275.3,286046993.3,P
1504524295.2,286046995.8,N
1504524315.0,286046995.7,N
1504524315.9,286046995.7,N
1504524335.7,286046995.5,N
1504524355.6,286046994.2,P
1504524375.4,286046995.2,P
1504524395.2,286046997.6,P
1504524415.1,286046998.0,N
1504524416.0,286046998.0,N
1504524435.8,286046995.9,N
1504524455.6,286046996.1,N
1504524475.5,286046995.8,P
1504524495.3,286047000.3,N
1504524515.1,286047000.7,N
1504524535.9,286047000.7,N
1504524555.7,286046999.1,N
1504524575.5,286046999.6,N
1504524595.4,286046996.8,N
1504524615.2,286046998.0,N
1504524635.0,286046997.7,N
1504524635.9,286046997.7,N
1504524655.8,286046993.7,P
1504524675.6,286046996.1,N
1504524695.4,286046996.4,N
1504524715.3,286046994.2,P
1504524735.1,286046997.6,N
1504524755.9,286046995.0,P
1504524775.7,286046994.9,P
1504524795.5,286047000.3,N
1504524815.4,286046999.9,N
1504524835.2,286047000.5,N
1504524855.0,286047000.7,N
1504524855.9,286047000.7,N
1504524875.7,286046998.3,N
1504524895.6,286046999.4,N
1504524915.4,286046999.5,N
1504524935.2,286046997.4,N
1504524955.1,286046997.8,N
1504524956.0,286046997.8,N
1504524975.8,286046997.4,N
1504524995.6,286046995.1,N
1504525015.5,286046999.6,N
1504525035.3,286046997.7,N
1504525055.1,286046999.3,N
1504525075.9,286047000.5,N
1504525095.7,286046999.2,N
1504525115.5,286046999.2,N
1504525135.4,286046995.2,N
1504525155.2,286046997.8,N
1504525175.0,286046995.1,N
1504525175.9,286046995.1,N
1504525195.7,286046995.0,N
1504525215.6,286046996.0,N
1504525235.4,286046996.4,N
1504525255.3,286046993.4,P
1504525275.1,286046996.7,N
1504525276.0,286046996.7,N
1504525295.8,286046996.7,N
1504525315.6,286046997.3,N
1504525335.5,286046997.0,N
1504525355.3,286046997.0,N
1504525375.2,286046996.2,P
1504525395.9,286046997.4,P
1504525415.7,286046995.3,P
1504525435.6,286046996.2,P
1504525455.4,286047000.6,P
1504525475.2,286047002.8,N
1504525495.1,286047002.5,N
1504525496.0,286047002.5,N
1504525515.8,286047001.2,N
1504525535.6,286047000.8,N
1504525555.4,286047000.7,N
1504525575.3,286046998.8,N
1504525595.1,286046998.4,N
1504525615.8,286046999.5,N
1504525635.7,286046996.7,N
1504525655.5,286046997.8,N
1504525675.3,286046996.7,N
1504525695.2,286046995.6,N
1504525715.9,286046996.2,N
1504525735.7,286046995.2,N
1504525755.6,286046996.0,N
1504525775.4,286046995.2,N
1504525795.2,286046993.7,N
1504525815.0,286046995.2,N
1504525815.9,286046995.2,N
1504525835.8,286046995.6,N
1504525855.6,286046998.1,N
1504525875.4,286046996.9,N
1504525895.3,286046994.9,N
1504525915.1,286046997.8,N
1504525935.8,286046998.7,N
1504525955.7,286046997.8,N
1504525975.5,286046995.4,N
1504525995.3,286046993.8,N
1504526015.2,286046994.1,N
1504526035.9,286046994.0,N
1504526055.7,286046994.4,N
1504526075.6,286046994.1,N
1504526095.4,286046993.5,P
1504526115.2,286046996.9,N
1504526135.1,286046997.1,N
1504526136.0,286046997.1,N
1504526155.8,286046995.4,P
1504526175.6,286046999.2,N
1504526195.5,286046997.7,N
1504526215.3,286046995.3,P
1504526235.1,286047001.0,N
1504526255.9,286047001.2,N
1504526275.7,286046998.2,N
1504526295.5,286046998.6,N
1504526315.4,286046999.1,N
1504526335.2,286046997.7,N
1504526355.0,286046995.4,N
1504526355.9,286046995.4,N
1504526375.8,286046995.5,N
1504526395.6,286046995.0,N
